Weather History for KTPA - May, 2012

Change the Weather History Date:

Saturday, May 5, 2012

  Actual Average Record
Temperature  
Mean Temperature 80 °F 76 °F  
Max Temperature 87 °F 85 °F 93 °F (2002)
Min Temperature 72 °F 67 °F 49 °F (1971)
Degree Days  
Heating Degree Days 0 0  
Month to date heating degree days 0 0  
Since 1 July heating degree days 210 538  
Cooling Degree Days 15 11  
Month to date cooling degree days 81 54  
Year to date cooling degree days 876 514  
Growing Degree Days 30 (Base 50)    
Moisture  
Dew Point 68 °F    
Average Humidity 69    
Maximum Humidity 82    
Minimum Humidity 55    
Precipitation  
Precipitation 0.00 in 0.05 in 2.84 in (1904)
Month to date precipitation T 0.25  
Year to date precipitation 6.23 10.35  
Sea Level Pressure  
Sea Level Pressure 29.99 in    
Wind  
Wind Speed 6 mph (SW)    
Max Wind Speed 16 mph    
Max Gust Speed 21 mph    
Visibility 10 miles    
Events      
T = Trace of Precipitation, MM = Missing Value Source: NWS Daily Summary

Daily Weather History Graph

Daily Weather History Graph

Search for Another Location

Airport or City:

Trip Planner

Search our weather history database for the weather conditions in past years. The results will help you decide how hot, cold, wet, or windy it might be!

Date:

Astronomy

May. 05, 2012 Rise Set
Actual Time 6:46 AM EDT 8:07 PM EDT
Civil Twilight 6:21 AM EDT 8:32 PM EDT
Nautical Twilight 5:52 AM EDT 9:02 PM EDT
Astronomical Twilight 5:21 AM EDT 9:33 PM EDT
Moon 7:55 PM EDT (5/5) 6:07 AM EDT (5/5)
Length of Visible Light 14h 10m
Length of Day
13h 20m
Full, 100% of the Moon is Illuminated
May 5
Full
May 5
Full
May 12
Last Quarter
May 20
New
May 28
First Quarter

Hourly Weather History & Observations

Time (EDT) Temp. Heat Index Dew Point Humidity Pressure Visibility Wind Dir Wind Speed Gust Speed Precip Events Conditions
12:53 AM 77.0 °F - 68.0 °F 74% 30.03 in 10.0 mi ENE 3.5 mph - N/A   Partly Cloudy
1:53 AM 75.9 °F - 66.0 °F 71% 30.01 in 10.0 mi East 3.5 mph - N/A   Partly Cloudy
2:53 AM 75.9 °F - 64.9 °F 69% 30.00 in 10.0 mi SSE 3.5 mph - N/A   Clear
3:53 AM 75.0 °F - 64.9 °F 71% 29.99 in 10.0 mi SSE 3.5 mph - N/A   Clear
4:53 AM 73.9 °F - 64.9 °F 73% 29.98 in 10.0 mi SE 3.5 mph - N/A   Clear
5:53 AM 73.0 °F - 64.9 °F 76% 29.99 in 10.0 mi SSE 3.5 mph - N/A   Clear
6:53 AM 73.0 °F - 66.0 °F 79% 30.01 in 10.0 mi Calm Calm - N/A   Partly Cloudy
7:53 AM 73.9 °F - 66.9 °F 79% 30.03 in 10.0 mi SSE 3.5 mph - N/A   Clear
8:53 AM 75.9 °F - 69.1 °F 79% 30.04 in 10.0 mi South 6.9 mph - N/A   Partly Cloudy
9:53 AM 79.0 °F - 70.0 °F 74% 30.04 in 10.0 mi South 8.1 mph - N/A   Partly Cloudy
10:53 AM 80.1 °F 83.2 °F 70.0 °F 71% 30.04 in 10.0 mi South 4.6 mph - N/A   Partly Cloudy
11:53 AM 82.0 °F 86.3 °F 71.1 °F 69% 30.04 in 10.0 mi SW 5.8 mph - N/A   Scattered Clouds
12:53 PM 82.9 °F 86.5 °F 69.1 °F 63% 30.03 in 10.0 mi SSW 6.9 mph - N/A   Scattered Clouds
1:53 PM 84.9 °F 88.8 °F 69.1 °F 59% 30.00 in 10.0 mi WSW 8.1 mph - N/A   Scattered Clouds
2:53 PM 84.9 °F 88.8 °F 69.1 °F 59% 30.00 in 10.0 mi WSW 9.2 mph - N/A   Partly Cloudy
3:53 PM 87.1 °F 91.3 °F 69.1 °F 55% 29.97 in 10.0 mi West 12.7 mph - N/A   Scattered Clouds
4:53 PM 86.0 °F 89.4 °F 68.0 °F 55% 29.96 in 10.0 mi WNW 13.8 mph - N/A   Scattered Clouds
5:53 PM 84.0 °F 87.8 °F 69.1 °F 61% 29.95 in 10.0 mi West 12.7 mph - N/A   Scattered Clouds
6:53 PM 82.0 °F 85.5 °F 69.1 °F 65% 29.95 in 10.0 mi West 10.4 mph - N/A   Scattered Clouds
7:53 PM 80.1 °F 82.9 °F 69.1 °F 69% 29.95 in 10.0 mi West 9.2 mph - N/A   Mostly Cloudy
8:53 PM 79.0 °F - 70.0 °F 74% 29.96 in 10.0 mi WNW 5.8 mph - N/A   Mostly Cloudy
9:53 PM 78.1 °F - 70.0 °F 76% 29.96 in 10.0 mi West 4.6 mph - N/A   Mostly Cloudy
10:53 PM 77.0 °F - 71.1 °F 82% 29.97 in 10.0 mi NW 3.5 mph - N/A   Mostly Cloudy
11:53 PM 77.0 °F - 71.1 °F 82% 29.97 in 10.0 mi West 4.6 mph - N/A   Scattered Clouds